Weather History for Fort Myers, FL

Change the Weather History Date:

Tuesday, August 27, 2013

  Actual Average Record
Temperature  
Mean Temperature 80 °F 83 °F  
Max Temperature 88 °F 92 °F 96 °F (1941)
Min Temperature 72 °F 75 °F 67 °F (1917)
Degree Days  
Heating Degree Days 0 0  
Month to date heating degree days 0 0  
Since 1 June heating degree days 0 0  
Since 1 July heating degree days 0 0  
Cooling Degree Days 15 18  
Month to date cooling degree days 486 486  
Year to date cooling degree days 2651 2641  
Since 1 June cooling degree days 1513 1575  
Growing Degree Days 30 (Base 50)    
Moisture  
Dew Point 73 °F    
Average Humidity 86    
Maximum Humidity 100    
Minimum Humidity 59    
Precipitation  
Precipitation 0.16 in 0.34 in 3.82 in (1972)
Month to date precipitation 8.15 8.82  
Year to date precipitation 38.69 39.75  
Sea Level Pressure  
Sea Level Pressure 30.02 in    
Wind  
Wind Speed 3 mph (East)    
Max Wind Speed 24 mph    
Max Gust Speed 32 mph    
Visibility 9 miles    
Events Rain , Thunderstorm    
T = Trace of Precipitation, MM = Missing Value Source: NWS Daily Summary

Daily Weather History Graph

Daily Weather History Graph

Search for Another Location

Airport:

Trip Planner

Search our weather history database for the weather conditions in past years. The results will help you decide how hot, cold, wet, or windy it might be!

Date:

Astronomy

Aug. 27, 2013 Rise Set
Actual Time 7:05 AM EDT 7:52 PM EDT
Civil Twilight 6:41 AM EDT 8:15 PM EDT
Nautical Twilight 6:13 AM EDT 8:43 PM EDT
Astronomical Twilight 5:44 AM EDT 9:12 PM EDT
Moon No Moon Rise 1:20 PM EDT (8/27)
Length of Visible Light 13h 34m
Length of Day
12h 47m
Waning Gibbous, 57% of the Moon is Illuminated
Aug 27
Waning Gibbous
Aug 28
Last Quarter
Sep 5
New
Sep 12
First Quarter
Sep 19
Full

Hourly Weather History & Observations

Time (EDT) Temp. Heat Index Dew Point Humidity Pressure Visibility Wind Dir Wind Speed Gust Speed Precip Events Conditions
12:53 AM 73.9 °F - 73.0 °F 97% 30.05 in 10.0 mi Calm Calm - N/A   Clear
1:53 AM 73.0 °F - 73.0 °F 100% 30.03 in 10.0 mi East 4.6 mph - N/A   Clear
2:53 AM 73.0 °F - 72.0 °F 96% 30.01 in 10.0 mi ENE 3.5 mph - N/A   Clear
3:53 AM 73.0 °F - 72.0 °F 96% 30.01 in 10.0 mi Calm Calm - N/A   Clear
4:53 AM 73.0 °F - 72.0 °F 96% 30.00 in 10.0 mi ENE 5.8 mph - N/A   Clear
5:53 AM 72.0 °F - 71.1 °F 97% 30.01 in 10.0 mi Calm Calm - N/A   Clear
6:53 AM 73.0 °F - 72.0 °F 96% 30.01 in 10.0 mi Calm Calm - N/A   Clear
7:53 AM 73.9 °F - 73.0 °F 97% 30.02 in 10.0 mi Calm Calm - N/A   Clear
8:53 AM 77.0 °F - 73.9 °F 90% 30.04 in 10.0 mi ENE 4.6 mph - N/A   Clear
9:53 AM 80.1 °F 84.2 °F 73.0 °F 79% 30.05 in 10.0 mi East 5.8 mph - N/A   Clear
10:53 AM 82.9 °F 88.8 °F 73.0 °F 72% 30.06 in 10.0 mi East 6.9 mph - N/A   Scattered Clouds
11:53 AM 84.0 °F 89.6 °F 72.0 °F 67% 30.05 in 10.0 mi East 8.1 mph - N/A   Partly Cloudy
12:53 PM 87.1 °F 93.6 °F 72.0 °F 61% 30.02 in 10.0 mi East 3.5 mph - N/A   Partly Cloudy
1:06 PM 87.8 °F 93.8 °F 71.6 °F 58% 30.01 in 10.0 mi ESE 9.2 mph - N/A   Scattered Clouds
1:53 PM 87.1 °F 92.8 °F 71.1 °F 59% 30.01 in 10.0 mi ESE 4.6 mph - N/A   Mostly Cloudy
2:15 PM 75.2 °F - 73.4 °F 94% 30.00 in 2.5 mi ENE 24.2 mph 32.2 mph 0.00 in Rain , Thunderstorm Thunderstorms and Rain
2:22 PM 73.4 °F - 73.4 °F 100% 30.02 in 0.8 mi ENE 17.3 mph 32.2 mph 0.04 in Rain , Thunderstorm Heavy Thunderstorms and Rain
2:33 PM 75.2 °F - 71.6 °F 89% 30.01 in 2.0 mi ENE 9.2 mph - 0.16 in Rain , Thunderstorm Light Thunderstorms and Rain
2:41 PM 75.2 °F - 71.6 °F 89% 30.01 in 5.0 mi ENE 4.6 mph - 0.16 in Rain , Thunderstorm Light Thunderstorms and Rain
2:53 PM 75.0 °F - 73.0 °F 94% 30.02 in 10.0 mi ENE 8.1 mph - 0.16 in   Mostly Cloudy
3:53 PM 75.9 °F - 71.1 °F 85% 29.99 in 10.0 mi East 4.6 mph - 0.00 in   Clear
4:53 PM 80.1 °F 84.2 °F 73.0 °F 79% 29.99 in 10.0 mi Calm Calm - N/A   Mostly Cloudy
5:53 PM 81.0 °F 85.8 °F 73.0 °F 77% 30.00 in 10.0 mi South 4.6 mph - N/A   Partly Cloudy
6:53 PM 79.0 °F - 73.0 °F 82% 30.01 in 10.0 mi SSW 4.6 mph - N/A   Scattered Clouds
7:53 PM 78.1 °F - 73.0 °F 84% 30.00 in 10.0 mi Calm Calm - N/A   Clear
8:53 PM 78.1 °F - 73.9 °F 87% 30.01 in 10.0 mi Calm Calm - N/A   Clear
9:53 PM 77.0 °F - 73.9 °F 90% 30.02 in 10.0 mi Calm Calm - N/A   Clear
10:53 PM 75.9 °F - 73.9 °F 94% 30.03 in 10.0 mi Calm Calm - N/A   Clear
11:53 PM 75.9 °F - 73.9 °F 94% 30.03 in 10.0 mi Calm Calm - N/A   Clear